DW4212 Weather Reports


Display with metric or nautical units.
time (UTC)temp
F
wind
direction
speed
MPH
gust
MPH
rain 1hr
in
rain 24hr
in
rain mn
in
humidity
%
barometer
mb
20260505164915 58 329 1.0 9.0 0.00 0.04 0.00 44 1012.7
20260505163923 59 355 2.0 6.0 0.00 0.04 0.00 41 1012.7
20260505162926 59 295 2.0 13.0 0.00 0.04 0.00 43 1012.6
20260505161919 59 309 1.0 7.0 0.00 0.04 0.00 43 1012.6
20260505160929 59 37 1.0 8.0 0.00 0.04 0.00 43 1012.6
20260505152923 59 304 2.0 10.0 0.00 0.20 0.00 43 1012.6
20260505151910 59 355 4.0 14.0 0.00 0.20 0.00 43 1012.6
20260505150920 58 306 3.0 11.0 0.00 0.20 0.00 43 1012.6
20260505125033 54 57 0.0 0.0 0.00 0.20 0.00 53 1013.1
20260505123934 54 57 0.0 4.0 0.00 0.20 0.00 54 1013.2
20260505122937 54 57 1.0 6.0 0.00 0.20 0.00 52 1013.1
20260505121950 55 51 4.0 9.0 0.00 0.20 0.00 55 1013.1
20260505120938 57 180 0.0 0.0 0.00 0.20 0.00 54 1013.2
20260505115941 58 187 0.0 0.0 0.00 0.20 0.00 52 1013.3
20260505114947 58 187 0.0 0.0 0.00 0.20 0.00 48 1013.3
20260505113935 59 187 0.0 5.0 0.00 0.20 0.00 50 1013.3
20260505112941 57 192 1.0 5.0 0.00 0.20 0.00 56 1013.5
20260505111951 56 238 0.0 0.0 0.00 0.20 0.00 53 1013.6
20260505110938 55 239 0.0 0.0 0.00 0.20 0.00 59 1013.6
20260505102034 53 256 1.0 4.0 0.00 0.20 0.00 60 1013.9
20260505100939 52 267 0.0 4.0 0.00 0.20 0.00 56 1014.0
20260505095943 52 267 0.0 3.0 0.00 0.20 0.00 59 1013.9
20260505094951 52 267 0.0 0.0 0.00 0.20 0.00 57 1013.8
20260505093940 52 267 0.0 0.0 0.00 0.20 0.00 58 1013.7
20260505092947 53 267 0.0 0.0 0.00 0.20 0.00 57 1013.7
20260505091941 53 267 0.0 8.0 0.00 0.20 0.00 58 1013.8
20260505090949 52 313 0.0 0.0 0.00 0.20 0.00 54 1013.8
20260505085933 52 338 0.0 0.0 0.00 0.20 0.00 58 1013.8
20260505084941 51 347 0.0 0.0 0.00 0.20 0.00 59 1013.7
20260505083941 51 345 0.0 0.0 0.00 0.20 0.00 56 1013.8
20260505082949 51 355 0.0 6.0 0.00 0.20 0.00 56 1013.9
20260505081917 51 342 0.0 6.0 0.00 0.20 0.00 57 1013.8
20260505080927 51 338 2.0 8.0 0.00 0.20 0.00 56 1013.7
20260505075910 50 327 0.0 6.0 0.00 0.20 0.00 59 1013.7
20260505073917 49 29 0.0 0.0 0.00 0.20 0.00 63 1013.8
20260505072921 48 35 0.0 6.0 0.00 0.20 0.00 64 1013.8
20260505071914 48 32 0.0 0.0 0.00 0.20 0.00 66 1013.8
20260505071004 47 32 0.0 4.0 0.00 0.20 0.00 67 1013.8
20260505065924 47 44 0.0 4.0 0.00 0.20 0.00 67 1013.8
20260505064912 47 329 0.0 6.0 0.00 0.20 0.00 68 1013.8
20260505063921 46 323 0.0 5.0 0.00 0.20 0.00 68 1013.7
20260505062929 46 355 0.0 7.0 0.00 0.20 0.00 68 1013.6
20260505061919 46 9 0.0 8.0 0.00 0.20 0.00 67 1013.6
20260505060928 46 360 2.0 7.0 0.00 0.20 0.00 68 1013.5
20260505055911 46 333 2.0 6.0 0.00 0.20 0.00 69 1013.4
20260505054925 46 34 1.0 6.0 0.00 0.20 0.00 71 1013.5
20260505053916 46 55 0.0 6.0 0.00 0.20 0.00 70 1013.4
20260505052921 46 45 1.0 6.0 0.00 0.20 0.00 70 1013.3
20260505051913 46 347 1.0 6.0 0.00 0.20 0.00 68 1013.3
20260505050924 47 15 1.0 8.0 0.00 0.20 0.00 65 1013.3
20260505040911 46 341 4.0 8.0 0.00 0.20 0.00 68 1013.0
20260505035919 47 333 1.0 8.0 0.00 0.20 0.00 71 1013.2
20260505034929 47 40 0.0 0.0 0.00 0.20 0.00 72 1013.2
20260505033917 47 40 0.0 6.0 0.00 0.20 0.00 72 1013.3
20260505032921 47 44 0.0 4.0 0.00 0.20 0.00 71 1013.3
20260505031914 47 351 0.0 5.0 0.00 0.20 0.00 69 1013.3
20260505030924 47 323 1.0 6.0 0.00 0.20 0.00 69 1013.3
20260505025926 47 294 1.0 6.0 0.00 0.20 0.00 70 1013.4
20260505024915 48 298 0.0 8.0 0.00 0.20 0.00 70 1013.4
20260505023929 48 321 2.0 10.0 0.00 0.20 0.00 69 1013.4
20260505022914 48 302 2.0 10.0 0.00 0.20 0.00 68 1013.4
20260505021920 48 297 4.0 13.0 0.00 0.20 0.00 68 1013.4
20260505020948 48 321 1.0 9.0 0.00 0.20 0.00 68 1013.4
20260505014937 48 344 3.0 13.0 0.00 0.20 0.00 68 1013.4
20260505013939 48 289 3.0 11.0 0.00 0.20 0.00 69 1013.3
20260505012934 48 321 2.0 9.0 0.00 0.20 0.00 69 1013.4
20260505011939 48 302 3.0 15.0 0.00 0.20 0.00 69 1013.4
20260505010947 48 296 4.0 13.0 0.00 0.20 0.00 69 1013.5
20260505005947 48 317 3.0 12.0 0.00 0.20 0.00 69 1013.5
20260505004949 48 294 3.0 11.0 0.00 0.20 0.00 69 1013.7
20260505003932 48 304 4.0 12.0 0.00 0.20 0.00 69 1013.8
20260505002934 48 306 3.0 12.0 0.00 0.20 0.00 69 1013.8
20260505001942 48 296 2.0 8.0 0.00 0.20 0.00 69 1013.8
20260505000935 49 294 2.0 11.0 0.00 0.20 0.00 68 1013.9
20260504235937 49 310 3.0 13.0 0.00 0.20 0.04 68 1013.8
20260504234942 49 319 0.0 8.0 0.00 0.20 0.04 68 1014.0
20260504233947 49 336 2.0 13.0 0.00 0.20 0.04 67 1014.1
20260504232945 50 307 2.0 9.0 0.00 0.20 0.04 67 1014.0
20260504231934 50 336 0.0 7.0 0.00 0.20 0.04 66 1014.0
20260504230945 50 323 1.0 14.0 0.00 0.20 0.04 65 1014.1
20260504225931 50 340 1.0 11.0 0.00 0.20 0.04 64 1014.1
20260504224940 51 46 1.0 8.0 0.00 0.20 0.04 63 1014.2
20260504223951 51 300 1.0 11.0 0.00 0.20 0.04 64 1014.2
20260504222934 51 315 0.0 10.0 0.00 0.20 0.04 64 1014.2
20260504220943 51 297 3.0 8.0 0.00 0.20 0.04 62 1014.2
20260504215947 52 291 1.0 7.0 0.00 0.20 0.04 62 1014.2
20260504214935 52 336 2.0 8.0 0.00 0.20 0.04 61 1014.4
20260504213946 51 330 2.0 7.0 0.00 0.20 0.04 60 1014.3
20260504212945 51 26 0.0 0.0 0.00 0.20 0.04 62 1014.5
20260504211933 51 360 0.0 4.0 0.00 0.20 0.04 62 1014.4
20260504210948 52 326 0.0 6.0 0.00 0.20 0.04 64 1014.5
20260504204944 52 316 3.0 8.0 0.00 0.20 0.04 59 1014.2
20260504204012 52 350 0.0 7.0 0.00 0.20 0.04 63 1014.2
20260504202912 52 360 0.0 9.0 0.00 0.20 0.04 67 1014.2
20260504201926 52 10 0.0 0.0 0.00 0.20 0.04 64 1014.1
20260504200917 52 355 0.0 6.0 0.00 0.20 0.04 65 1014.0
20260504195922 52 351 0.0 4.0 0.00 0.20 0.04 65 1013.8
20260504194914 52 327 0.0 6.0 0.00 0.20 0.04 65 1013.7
20260504193924 52 327 0.0 9.0 0.00 0.20 0.04 64 1013.5
20260504192928 52 327 2.0 7.0 0.00 0.20 0.04 64 1013.3
20260504191917 52 317 0.0 8.0 0.00 0.20 0.04 65 1013.3
20260504190912 52 18 0.0 4.0 0.04 0.20 0.04 65 1013.3
20260504185913 52 328 0.0 6.0 0.04 0.20 0.04 65 1013.1
20260504185004 52 292 0.0 8.0 0.04 0.20 0.04 67 1013.2
20260504183929 52 293 0.0 8.0 0.04 0.20 0.04 67 1013.1
20260504182913 52 308 3.0 9.0 0.04 0.20 0.04 67 1013.1
20260504181926 53 355 3.0 13.0 0.04 0.20 0.04 67 1013.1
20260504180916 53 302 0.0 8.0 0.00 0.16 0.03 66 1013.2
20260504175920 54 296 1.0 7.0 0.00 0.16 0.03 68 1013.1
20260504174911 54 290 0.0 3.0 0.00 0.16 0.03 68 1013.1
20260504173927 54 291 1.0 8.0 0.00 0.16 0.03 68 1013.1
20260504172929 54 321 0.0 6.0 0.00 0.16 0.03 69 1013.0
20260504171959 54 319 3.0 9.0 0.00 0.16 0.03 69 1012.9
20260504170924 54 312 2.0 9.0 0.00 0.16 0.03 70 1012.9